Regional Weather Roundup
Issued by NWS

Home | Current Version | Previous Version | Graphics & Text | Print | Product List | Glossary On
Versions: 1 2 3 4 5 6 7 8 9 10 11 12 13 14 15 16 17 18 19 20 21 22 23 24 25 26 27 28 29 30 31 32 33 34 35 36 37 38 39 40 41 42 43 44 45 46 47 48 49 50
000
ASUS45 KTFX 241410
RWRMT
MONTANA REGIONAL WEATHER ROUNDUP
NATIONAL WEATHER SERVICE GREAT FALLS MT
700 AM MST SAT FEB 24 2018

NOTE: "FAIR" INDICATES FEW OR NO CLOUDS BELOW 12000 FEET WITH NO
SIGNIFICANT WEATHER AND/OR OBSTRUCTIONS TO VISIBILITY.

MTZ001>007-043-241500-
WEST OF THE DIVIDE

CITY           SKY/WX    TMP DP  RH WIND       PRES   REMARKS
KALISPELL      CLOUDY    15  12  88 W6        29.88F WCI   6
MISSOULA       MOCLDY    15  11  83 CALM      29.90F
BUTTE          MOCLDY    13   4  67 NE3       29.78F
MULLAN PASS    LGT SNOW  11   9  92 VRB3      29.68F FOG
ANACONDA         N/A     16   3  57 S7        29.79F WCI   6
DEER LODGE       N/A     10   5  79 W5        29.82F
HAMILTON         N/A     21  10  63 MISG      29.88F
RONAN            N/A     18  14  86 S5        29.89F
$$

MTZ008-052>055-241500-
SOUTHWEST MONTANA

CITY           SKY/WX    TMP DP  RH WIND       PRES   REMARKS
BOZEMAN        CLOUDY    19   9  65 NE6       29.83S WCI  11
DILLON         MOCLDY     8   4  83 S10       29.82F WCI  -6
ENNIS          CLOUDY    18   7  62 S14       29.86F WCI   4
W YELLOWSTONE  MOCLDY     7   3  85 SW10G18   29.82F HAZE    WCI  -8
THREE FORKS      N/A     19   9  65 CALM      29.84F
$$

MTZ009-010-012-014-046-048-049-054-241500-
EAST SLOPES AND CENTRAL MONTANA

CITY           SKY/WX    TMP DP  RH WIND       PRES   REMARKS
CUT BANK       FAIR      13   6  74 W24       29.63F WCI  -7
GREAT FALLS    FAIR      17   7  64 SW23      29.71F WCI  -1
MALMSTROM AFB  FAIR      19  10  69 SW23      29.73S WCI   1
HELENA         MOCLDY    20   8  60 VRB5      29.82F
AUGUSTA          N/A     19   9  64 W21       29.68R WCI   2
CHOTEAU          N/A     21   3  45 W14       29.70F WCI   8
FAIRFIELD      FAIR      19   6  56 SW20      29.68F WCI   4
POWER          FAIR       9   1  70 SW13      29.70S WCI  -7
RAYNESFORD     MOCLDY    22   7  54 W26G39    29.69F WCI   4
ULM            FAIR      18   8  65 SW15      29.75F WCI   3
WHITE SULPHUR    N/A     16   5  62 VRB3      29.74S
$$

MTZ011-013-016-021-045-047-050-051-241500-
NORTH CENTRAL MONTANA

CITY           SKY/WX    TMP DP  RH WIND       PRES   REMARKS
HAVRE          CLOUDY    14   8  77 SW24      29.70F WCI  -5
LEWISTOWN      FAIR       7   1  76 W8        29.70F WCI  -6
N BAR RANCH    CLOUDY    16   1  53 CALM      29.71S
CHINOOK          N/A     19  10  68 W15       29.70F WCI   5
GEYSER         MOCLDY    15   6  67 W15       29.68F WCI  -1
STANFORD       FAIR      17   7  63 W24       29.67F WCI  -1
WINIFRED       MOCLDY    13   5  70 SW13      29.69F WCI  -1
$$

MTZ017>020-022>027-061-062-241500-
NORTHEAST MONTANA

CITY           SKY/WX    TMP DP  RH WIND       PRES   REMARKS
GLASGOW        CLOUDY     0  -5  79 E9        29.73F WCI -15
GLENDIVE       FAIR      -8 -13  78 S9        29.77F WCI -25
JORDAN           N/A      0  -6  76 W5        29.75F
MALTA          CLOUDY     1  -4  78 CALM      29.71F
SIDNEY         FAIR      -7 -11  83 SW9       29.78F WCI -24
WOLF POINT     FAIR     -20 -27  70 CALM      29.78F
PLENTYWOOD       N/A     -6  -9  84 E8        29.71F WCI -21
POPLAR           N/A     -9 -15  77 W3        29.78F
$$

MTZ028>42-056>058-241500-
SOUTHCENTRAL AND SOUTHEAST MONTANA

CITY           SKY/WX    TMP DP  RH WIND       PRES   REMARKS
BAKER          FAIR       6   2  83 NW5       29.75S
BILLINGS       CLOUDY    15   4  61 SW17      29.78R WCI  -1
LIVINGSTON     CLOUDY    22   8  55 SW31G41   29.76S WCI   4
MILES CITY     FAIR      -9 -12  87 S8        29.80S WCI -25
BIG TIMBER     CLOUDY    21  10  63 W30G37    29.76F WCI   3
FORSYTH          N/A      0  -4  85 W3        29.79F
LAUREL           N/A     10   1  67 SW13      29.79S WCI  -5
$$

REGIONAL REPORTS...DAKOTAS

CITY           SKY/WX    TMP DP  RH WIND       PRES   REMARKS
WILLISTON      FAIR      -4  -7  87 CALM      29.77F
MINOT          FAIR       9   0  67 S14       29.79F WCI  -7
DICKINSON      LGT SNOW  10   7  87 S13       29.74S FOG     WCI  -5
BEACH          CLOUDY    14   5  67 W17       29.76S WCI  -3
CROSBY         FAIR       1  -4  78 SW17      29.74F WCI -19
TIOGA          FAIR       3   0  85 SW8       29.74F WCI -10
WATFORD CITY   FAIR       1  -2  85 CALM      29.77R
BISMARCK       CLOUDY     6   2  83 SE3       29.89F
GRAND FORKS    FAIR      -1  -5  82 S10       30.03R WCI -17
FARGO          MOCLDY     2  -1  88 S10       30.07F FOG     WCI -14
BUFFALO SD       N/A      8   3  80 SW3       29.68S
RAPID CITY     MOCLDY    12   9  87 NW3       29.73F
$$

REGIONAL REPORTS...WYOMING/IDAHO/WASHINGTON

CITY           SKY/WX    TMP DP  RH WIND       PRES   REMARKS
GILLETTE       FAIR       6   0  76 NW6       29.73S WCI  -4
SHERIDAN       FAIR       0  -9  65 CALM      29.75S
BUFFALO WY     FAIR      11  -5  48 W5        29.70F
CODY           FAIR      20   1  43 W14G23    29.76R WCI   7
YELLOWSTONE LA   N/A      3  -3  76 VRB6      29.79F WCI  -8
IDAHO FALLS    CLOUDY    15   8  73 SW17      30.01F WCI  -1
SALMON         CLOUDY    19  13  77 N3        29.94F
BOISE          FLURRIES  25  21  85 E13       30.07F WCI  14
SPOKANE        CLOUDY    25  22  88 SE6       29.84F WCI  18
$$

REGIONAL REPORTS...ALBERTA

CITY           SKY/WX    TMP DP  RH WIND       PRES   REMARKS
CALGARY        CLOUDY    23  -2  33 W20G25    29.57R WCI   8
EDMONTON       PTCLDY    19   5  53 W10       29.52S WCI   8
FORT MCMURRAY  PTCLDY    14  12  92 NW9       29.57  WCI   2
HIGH LEVEL     PTCLDY     9   9 100 NW3       29.70S
LETHBRIDGE     PTCLDY    18   9  68 W35G43    29.62S BLWGSNOWWCI  -3
LLOYDMINSTER   MOCLDY    14   9  79 W15       29.47S WCI  -1
MEDICINE HAT   CLOUDY    21  16  79 SW15      29.62F WCI   8
ONEFOUR          N/A     14   9  79 NW16        N/A  WCI  -2
PEACE RIVER    FLURRIES  16  10  79 N9        29.65R WCI   4
PINCHER CREEK  CLEAR     16   7  67 W26G33    29.65F WCI  -3
WATERTON GATE    N/A     18   5  57 SW28G45     N/A  WCI  -1
$$

REGIONAL REPORTS...SASKATCHEWAN

CITY           SKY/WX    TMP DP  RH WIND       PRES   REMARKS
CORONACH         N/A     10   3  72 W6          N/A  WCI   1
CYPRESS HILLS    N/A     18  14  86 W8          N/A  WCI   7
ESTEVAN        CLEAR      5  -4  66 SW9       29.73F WCI  -9
MOOSE JAW        N/A      9   3  78 SW16G23     N/A  WCI  -9
PRINCE ALBERT  MOCLDY     7   1  78 SW6       29.52S WCI  -3
REGINA         PTCLDY    -2  -6  84 SE8       29.62F WCI -17
ROCKGLEN         N/A      7   0  72 SW20        N/A  WCI -13
SASKATOON      MOCLDY    10   5  79 S12       29.54F WCI  -4
VAL MARIE        N/A      7   1  78 SW13        N/A  WCI  -9
$$



USA.gov is the U.S. government's official web portal to all federal, state and local government web resources and services.